Tracking 35334 objects as of 13-Sep-2026
HD Live streaming from Space Station
objects crossing your sky now

OPS 7034 (TRANSIT 18)

Track OPS 7034 (TRANSIT 18) now!
10-day predictions
OPS 7034 (TRANSIT 18) is classified as:


NORAD ID: 3133
Int'l Code: 1968-012A
Launch date: March 2, 1968
Source: United States (US)
Launch site: AIR FORCE WESTERN TEST RANGE (AFWTR)
Your satellite tracking list
Your tracking list is empty




NASA's NSSDC Master Catalog

Two Line Element Set (TLE):
1 03133U 68012A   26256.35052122  .00000087  00000-0  11575-3 0  9995
2 03133  90.0212 274.3414 0075885  94.9559 278.2872 13.51623435606286
Source of the keplerian elements: AFSPC